Weather History for EHRD - November, 2012

Change the Weather History Date:

Wednesday, November 28, 2012

  Actual Average Record
Temperature  
Mean Temperature 42 °F -  
Max Temperature 48 °F 42 °F 59 °F (2000)
Min Temperature 36 °F 34 °F 24 °F (2010)
Degree Days  
Heating Degree Days 23    
Moisture  
Dew Point 40 °F    
Average Humidity 89    
Maximum Humidity 100    
Minimum Humidity 66    
Precipitation  
Precipitation 0.04 in - - ()
Sea Level Pressure  
Sea Level Pressure 29.73 in    
Wind  
Wind Speed 4 mph ()    
Max Wind Speed 12 mph    
Max Gust Speed -    
Visibility 5.7 miles    
Events Fog , Rain    
Averages and records for this station are not official NWS values.
T = Trace of Precipitation, MM = Missing Value Source: Averaged Metar Reports

Daily Weather History Graph

Daily Weather History Graph

Search for Another Location

Airport or City:

Trip Planner

Search our weather history database for the weather conditions in past years. The results will help you decide how hot, cold, wet, or windy it might be!

Date:

Astronomy

Nov. 28, 2012 Rise Set
Actual Time 8:23 AM CET 4:36 PM CET
Civil Twilight 7:44 AM CET 5:15 PM CET
Nautical Twilight 7:01 AM CET 5:58 PM CET
Astronomical Twilight 6:21 AM CET 6:38 PM CET
Moon 4:39 PM CET (11/28) 8:07 AM CET (11/28)
Length of Visible Light 9h 31m
Length of Day
8h 12m
Full, 100% of the Moon is Illuminated
Nov 28
Full
Nov 28
Full
Dec 6
Last Quarter
Dec 13
New
Dec 20
First Quarter

Hourly Weather History & Observations

Time (CET) Temp. Windchill Dew Point Humidity Pressure Visibility Wind Dir Wind Speed Gust Speed Precip Events Conditions
12:25 AM 37.4 °F - 37.4 °F 100% 29.71 in 1.3 mi West 2.3 mph - N/A   Mist
12:55 AM 37.4 °F - 37.4 °F 100% 29.71 in 0.7 mi Variable 1.2 mph - N/A   Mist
1:00 AM 38 °F - 37 °F 96% 29.73 in 2 mi SE 2.2 mph - - Fog Fog
1:25 AM 37.4 °F - 37.4 °F 100% 29.71 in 3.1 mi Variable 1.2 mph - N/A   Partly Cloudy
1:55 AM 37.4 °F - 37.4 °F 100% 29.71 in 1.1 mi Variable 1.2 mph - N/A   Mist
2:25 AM 37.4 °F - 37.4 °F 100% 29.71 in 1.6 mi SSW 1.2 mph - N/A   Mist
2:55 AM 37.4 °F - 37.4 °F 100% 29.71 in - SSE 2.3 mph - N/A   Mist
3:25 AM 39.2 °F - 37.4 °F 93% 29.71 in 1.4 mi SE 1.2 mph - N/A   Overcast
3:55 AM 37.4 °F - 37.4 °F 100% 29.71 in - West 1.2 mph - N/A   Overcast
4:00 AM 38 °F - 38 °F 98% 29.73 in 3 mi West 2.2 mph - -   Mist
4:25 AM 37.4 °F - 37.4 °F 100% 29.71 in - WSW 1.2 mph - N/A   Mist
4:55 AM 37.4 °F - 37.4 °F 100% 29.71 in - WNW 2.3 mph - N/A   Overcast
5:25 AM 39.2 °F 37.0 °F 39.2 °F 100% 29.71 in 3.7 mi NNW 3.5 mph - N/A   Mostly Cloudy
5:55 AM 41.0 °F 38.0 °F 39.2 °F 93% 29.71 in 4.3 mi NNW 4.6 mph - N/A   Mostly Cloudy
6:25 AM 42.8 °F 41.1 °F 41.0 °F 93% 29.74 in 5.0 mi North 3.5 mph - N/A   Overcast
6:55 AM 42.8 °F 41.1 °F 41.0 °F 93% 29.74 in 5.6 mi North 3.5 mph - N/A   Overcast
7:00 AM 42 °F - 41 °F 94% 29.74 in 6 mi North 4.5 mph - -   Mist
7:25 AM 42.8 °F 40.1 °F 41.0 °F 93% 29.74 in 6.2 mi North 4.6 mph - N/A   Overcast
7:55 AM 42.8 °F 41.1 °F 41.0 °F 93% 29.74 in 6.2 mi North 3.5 mph - N/A   Overcast
8:25 AM 42.8 °F 41.1 °F 41.0 °F 93% 29.74 in 6.2 mi NNW 3.5 mph - N/A   Overcast
8:55 AM 42.8 °F 41.1 °F 41.0 °F 93% 29.74 in 6.2 mi North 3.5 mph - N/A   Overcast
9:25 AM 41.0 °F 38.0 °F 39.2 °F 93% 29.77 in 6.2 mi NW 4.6 mph - N/A   Mostly Cloudy
9:55 AM 42.8 °F 41.1 °F 41.0 °F 93% 29.77 in 6.2 mi NNW 3.5 mph - N/A   Overcast
10:00 AM 43 °F - 40 °F 87% 29.77 in 19 mi NNW 2.2 mph - - Rain Drizzle
10:25 AM 42.8 °F - 41.0 °F 93% 29.77 in 6.2 mi NNW 1.2 mph - N/A   Overcast
10:55 AM 44.6 °F 43.1 °F 41.0 °F 87% 29.77 in 6.2 mi NNW 3.5 mph - N/A   Partly Cloudy
11:25 AM 46.4 °F 44.3 °F 41.0 °F 81% 29.77 in 6.2 mi North 4.6 mph - N/A   Partly Cloudy
11:55 AM 48.2 °F - 41.0 °F 76% 29.74 in 6.2 mi North 5.8 mph - N/A   Scattered Clouds
12:25 PM 48.2 °F - 39.2 °F 71% 29.74 in 6.2 mi NNW 9.2 mph - N/A   Unknown
12:55 PM 48.2 °F - 41.0 °F 76% 29.74 in 6.2 mi NNW 10.4 mph - N/A   Mostly Cloudy
1:00 PM 48 °F - 40 °F 66% 29.75 in 22 mi NNW 11.2 mph - -   Partly Cloudy
1:25 PM 48.2 °F - 39.2 °F 71% 29.74 in 6.2 mi NNW 8.1 mph - N/A   Mostly Cloudy
1:55 PM 46.4 °F 41.1 °F 39.2 °F 76% 29.74 in 6.2 mi NNW 11.5 mph - N/A   Mostly Cloudy
2:25 PM 46.4 °F 41.9 °F 41.0 °F 81% 29.71 in 6.2 mi North 9.2 mph - N/A Rain Rain Showers
2:55 PM 46.4 °F 42.4 °F 42.8 °F 87% 29.71 in 6.2 mi NNW 8.1 mph - N/A Rain Light Rain
3:25 PM 46.4 °F 42.9 °F 42.8 °F 87% 29.71 in 6.2 mi NNW 6.9 mph - N/A   Mostly Cloudy
3:55 PM 46.4 °F 43.5 °F 42.8 °F 87% 29.71 in 6.2 mi NNW 5.8 mph - N/A Rain Light Rain
4:00 PM 46 °F - 43 °F 84% 29.72 in 9 mi NNW 4.5 mph - - Rain Light Rain Showers
4:25 PM 46.4 °F 43.5 °F 42.8 °F 87% 29.71 in 6.2 mi North 5.8 mph - N/A Rain Light Rain Showers
4:55 PM 46.4 °F 41.9 °F 42.8 °F 87% 29.71 in 6.2 mi North 9.2 mph - N/A   Overcast
5:25 PM 46.4 °F 41.9 °F 41.0 °F 81% 29.71 in 6.2 mi North 9.2 mph - N/A   Mostly Cloudy
5:55 PM 44.6 °F 38.8 °F 41.0 °F 87% 29.71 in 6.2 mi North 11.5 mph - N/A   Scattered Clouds
6:25 PM 44.6 °F 39.2 °F 41.0 °F 87% 29.71 in 6.2 mi North 10.4 mph - N/A   Unknown
6:55 PM 42.8 °F 38.0 °F 41.0 °F 93% 29.74 in 6.2 mi North 8.1 mph - N/A   Partly Cloudy
7:00 PM 43 °F - 40 °F 87% 29.75 in 22 mi North 8.9 mph - -   Partly Cloudy
7:25 PM 42.8 °F 38.6 °F 41.0 °F 93% 29.74 in 6.2 mi North 6.9 mph - N/A   Partly Cloudy
7:55 PM 42.8 °F 38.0 °F 39.2 °F 87% 29.74 in 6.2 mi North 8.1 mph - N/A   Partly Cloudy
8:25 PM 41.0 °F 37.1 °F 39.2 °F 93% 29.74 in 6.2 mi North 5.8 mph - N/A   Scattered Clouds
8:55 PM 42.8 °F 38.0 °F 39.2 °F 87% 29.74 in 6.2 mi North 8.1 mph - N/A   Overcast
9:25 PM 42.8 °F 38.0 °F 39.2 °F 87% 29.74 in 6.2 mi North 8.1 mph - N/A   Overcast
9:55 PM 42.8 °F 38.6 °F 41.0 °F 93% 29.74 in 6.2 mi North 6.9 mph - N/A   Overcast
10:00 PM 43 °F - 40 °F 86% 29.77 in 25 mi North 6.7 mph - - Rain Drizzle
10:25 PM 42.8 °F 39.3 °F 39.2 °F 87% 29.74 in 6.2 mi North 5.8 mph - N/A   Overcast
10:55 PM 42.8 °F 38.6 °F 39.2 °F 87% 29.74 in 6.2 mi North 6.9 mph - N/A   Overcast
11:25 PM 42.8 °F 39.3 °F 37.4 °F 81% 29.74 in 6.2 mi North 5.8 mph - N/A   Overcast
11:55 PM 42.8 °F 38.6 °F 37.4 °F 81% 29.74 in 6.2 mi North 6.9 mph - N/A   Mostly Cloudy